Regional Weather Roundup
Issued by NWS Cleveland, OH

Home | Current Version | Previous Version | Graphics & Text | Print | Product List | Glossary On
Versions: 1 2 3 4 5 6 7 8 9 10 11 12 13 14 15 16 17 18 19 20 21 22 23 24 25 26 27 28 29 30 31 32 33 34 35 36 37 38 39 40 41 42 43 44 45 46 47 48 49 50
104
ASUS41 KCLE 220010
RWRCLE
OHIO REGIONAL WEATHER ROUNDUP
NATIONAL WEATHER SERVICE WILMINGTON, OH
800 PM EDT SAT APR 21 2018

NOTE: "FAIR" INDICATES FEW OR NO CLOUDS BELOW 12,000 FEET WITH NO
SIGNIFICANT WEATHER AND/OR OBSTRUCTIONS TO VISIBILITY.

OHZ001>008-015>018-024>027-034-035-043-044-220100-
   NORTHWEST OHIO

CITY           SKY/WX    TMP DP  RH WIND       PRES   REMARKS
DEFIANCE       CLOUDY    54  28  36 E3        30.38S
FINDLAY        MOCLDY    52  17  25 NE10      30.37F
TOLEDO EXPRESS FAIR      51  19  28 E8        30.39F
TOLEDO EXEC    FAIR      48  20  32 E6        30.41F
LIMA           MOCLDY    50  28  42 NE7       30.37S
$$

OHZ009>014-019>023-028>033-038-089-220100-
   NORTHEAST OHIO

CITY           SKY/WX    TMP DP  RH WIND       PRES   REMARKS
CLE-HOPKINS    CLOUDY    44  23  43 N6        30.43S
CLE-LAKEFRONT  FAIR      41  31  67 NE8       30.40F
CUY CO. ARPT   CLOUDY    45  34  65 N6        30.41S
LORAIN-ELYRIA  FAIR      44  23  43 NE13      30.40F
ASHTABULA      FAIR      45  24  43 CALM      30.41S
AKRON-CANTON   MOCLDY    52  24  33 N8        30.37S
WOOSTER        MOCLDY    48  21  34 N7        30.38S
MANSFIELD      MOCLDY    49  21  33 N7        30.37F
YOUNGSTOWN     CLOUDY    49  28  44 N10       30.38R
$$

OHZ042-051>053-060>062-070>072-077>081-220100-
  SOUTHWEST OHIO

CITY           SKY/WX    TMP DP  RH WIND       PRES   REMARKS
CINC-COVINGTON CLOUDY    58  24  27 NE14      30.30S
CINC-LUNKEN    FAIR      56  30  37 NE12      30.32S
HAMILTON       FAIR      55  24  30 E8        30.34S
DAYTON         CLOUDY    53  23  31 NE8       30.35S
WRIGHT-PAT AFB CLOUDY    54  23  30 NE9       30.33F
DAYTON GENERAL FAIR      54  24  31 E6        30.32F
WILMINGTON     FAIR      52  28  39 NE7       30.32F
$$

OHZ036-037-039>041-045>050-054>059-063>069-073>076-082>088-220100-
  CENTRAL AND SOUTHEAST OHIO

CITY           SKY/WX    TMP DP  RH WIND       PRES   REMARKS
COLUMBUS       CLOUDY    55  20  25 NE6       30.34F
OSU AIRPORT    CLOUDY    53  23  31 N9        30.34F
BOLTON FIELD   NOT AVBL
RICKENBACK AFB FAIR      54  23  30 NE7       30.33S
NEWARK         FAIR      55  23  28 N5        30.34S
MARION         CLOUDY    48  20  32 N5        30.37F
LANCASTER      FAIR      54  30  40 N7        30.35S
ZANESVILLE     FAIR      55  23  28 N6        30.35R
NEW PHILLY     FAIR      54  23  30 N5        30.37S
$$




USA.gov is the U.S. government's official web portal to all federal, state and local government web resources and services.